Simultaneous Nadir Overpasses (SNOs) Predictions

Prediction of SNOs between METOP-A and NOAA-19 Satellite Orbit:

Table of predicted SNOs for the next 14.0 days since TLE Epoch: 4/16/2012
Index Date (METOP-A) Time (METOP-A) METOP-A Lat,Lon Date (NOAA-19) Time (NOAA-19) NOAA-19 Lat,Lon Distance(km) Time Diff (sec)
1 04/17/2012 04:35:06 73.12, 103.92 04/17/2012 04:33:55 73.12, 103.82 3.25 71
2 04/17/2012 05:25:48 -73.10, -88.81 04/17/2012 05:24:51 -73.08, -88.83 1.88 57
3 04/17/2012 06:16:29 73.06, 78.43 04/17/2012 06:15:59 73.06, 78.45 0.46 30
4 04/17/2012 07:07:11 -73.03,-114.29 04/17/2012 07:06:55 -73.02,-114.20 3.41 16
5 04/17/2012 07:57:51 73.04, 53.06 04/17/2012 07:58:04 73.04, 52.96 2.98 13
6 04/17/2012 08:48:33 -73.01,-139.67 04/17/2012 08:49:00 -73.00,-139.69 1.96 27
7 04/17/2012 09:39:14 72.97, 27.57 04/17/2012 09:40:08 72.97, 27.59 0.71 54
8 04/17/2012 10:29:56 -72.95,-165.15 04/17/2012 10:31:04 -72.93,-165.06 3.54 68
9 04/27/2012 01:56:29 -73.45, -35.73 04/27/2012 01:55:18 -73.48, -37.30 49.67 71
10 04/27/2012 02:47:15 73.10, 130.84 04/27/2012 02:46:18 73.08, 130.82 2.25 57
11 04/27/2012 03:37:57 -73.09, -61.86 04/27/2012 03:37:14 -73.07, -61.89 2.88 43
12 04/27/2012 04:28:38 73.05, 105.38 04/27/2012 04:28:23 73.07, 105.33 2.49 15
13 04/27/2012 05:19:20 -73.04, -87.31 04/27/2012 05:19:19 -73.05, -87.37 2.30 1
14 04/27/2012 06:10:01 72.99, 79.92 04/27/2012 06:10:27 73.00, 79.96 1.21 26
15 04/27/2012 07:00:43 -72.99,-112.77 04/27/2012 07:01:23 -72.99,-112.75 0.70 40
16 04/27/2012 07:51:23 72.99, 54.58 04/27/2012 07:52:32 72.98, 54.47 3.56 69
17 04/27/2012 08:42:11 -72.68,-138.75 04/27/2012 08:43:23 -72.72,-137.70 35.06 72




NCC Satellite Simultaneous Nadir Overpasses (SNOs) Prediction Service
